Tracking 27405 objects as of 1-Jun-2023
HD Live streaming from Space Station
objects crossing your sky now

STARLINK 1024

Track STARLINK 1024 now!
10-day predictions
STARLINK 1024 is classified as:


NORAD ID: 44729
Int'l Code: 2019-074S
Perigee: 428.0 km
Apogee: 440.4 km
Inclination: 53.0 °
Period: 93.1 minutes
Semi major axis: 6805 km
RCS: Unknown
Launch date: November 11, 2019
Source: United States (US)
Launch site: AIR FORCE EASTERN TEST RANGE (AFETR)
Your satellite tracking list
Your tracking list is empty




NASA's NSSDC Master Catalog

Two Line Element Set (TLE):
1 44729U 19074S   23151.90157017  .00023175  00000-0  46658-3 0  9999
2 44729  53.0210  16.5743 0009167 103.9881 256.2145 15.46471617196562
Source of the keplerian elements: AFSPC